Regional Weather Roundup
Issued by NWS

Home | Current Version | Previous Version | Graphics & Text | Print | Product List | Glossary On
Versions: 1 2 3 4 5 6 7 8 9 10 11 12 13 14 15 16 17 18 19 20 21 22 23 24 25 26 27 28 29 30 31 32 33 34 35 36 37 38 39 40 41 42 43 44 45 46 47 48 49 50
000
ASUS44 KMEG 011210
RWRTN
TENNESSEE HOURLY STATE WEATHER ROUNDUP
NATIONAL WEATHER SERVICE MEMPHIS TN
700 AM CDT TUE SEP 01 2015

TNZ002-004-019-021-049-052-054-088>092-011300-
WEST TENNESSEE

CITY           SKY/WX    TMP DP  RH WIND       PRES   REMARKS
MEMPHIS INTL   MOCLDY    74  68  81 E5        30.10R
NWS MEMPHIS      N/A     70 N/A N/A MISG        N/A
JACKSON        PTCLDY    66  64  93 CALM      30.13R FOG
DYERSBURG      PTCLDY    66  66 100 CALM      30.13R
UNION CITY     CLEAR    N/A N/A N/A CALM      30.12R
PARIS          CLEAR     63  63 100 CALM      30.14R
LEXINGTON      CLEAR     64  63  94 CALM      30.13R
$$

TNZ008-025-027-028-033-062-065-066-011300-
NORTH MIDDLE TENNESSEE

CITY           SKY/WX    TMP DP  RH WIND       PRES   REMARKS
NASHVILLE      MOCLDY    69  65  86 CALM      30.15R
CLARKSVILLE    CLEAR     65  64  97 CALM      30.14R FOG
SMYRNA         CLEAR     65  65 100 CALM      30.16R
COOKEVILLE     CLEAR     63  63 100 CALM      30.16R
CROSSVILLE     CLEAR     65  61  87 CALM      30.20R FOG
$$

TNZ061-075-076-078-094-096-097-011300-
SOUTH MIDDLE TENNESSEE

CITY           SKY/WX    TMP DP  RH WIND       PRES   REMARKS
FAYETTEVILLE   CLEAR     64  64 100 CALM      30.15S
TULLAHOMA      MOCLDY    64  61  88 CALM      30.17R
WINCHESTER     CLEAR     63  63 100 CALM      30.16S
MCMINNVILLE    CLEAR     64  64 100 CALM      30.17R
COLUMBIA       CLEAR    N/A N/A N/A CALM      30.13S
SHELBYVILLE    CLEAR     66  66 100 CALM      30.16R
$$

TNZ017-018-042-046-047-011300-
NORTHEAST TENNESSEE

CITY           SKY/WX    TMP DP  RH WIND       PRES   REMARKS
TRI CITIES     MOSUNNY   64  63  96 CALM      30.19R
ELIZABETHTON   SUNNY     64  63  94 CALM      30.20R
$$

TNZ012-013-036-069-073-074-011300-
CENTRAL EAST TENNESSEE

CITY           SKY/WX    TMP DP  RH WIND       PRES   REMARKS
KNOXVILLE      NOT AVBL
OAK RIDGE      CLOUDY    66  64  93 CALM      30.18R FOG
GATLINBURG     SUNNY     63  61  94 CALM      30.17R
MORRISTOWN     SUNNY     66  66 100 CALM      30.19R
$$

TNZ083-085-099-011300-
SOUTHEAST TENNESSEE

CITY           SKY/WX    TMP DP  RH WIND       PRES   REMARKS
CHATTANOOGA    PTCLDY    68  66  93 CALM      30.15R
$$

SKY/WX REPORTED AS FAIR MEANS FEW OR NO CLOUDS BELOW
12 THOUSAND FEET.




USA.gov is the U.S. government's official web portal to all federal, state and local government web resources and services.